Theta_e
309 312 314 313 314 315 314 314 314 315 318 318 318 318 319 320 320 319 321 321 323 324 324 325 325 324 323 324 323 323 322 322 320 319 319 322 323 324 325 326 327 327 327 327
312 311 313 314 315 315 315 315 314 316 319 319 318 319 319 319 319 320 321 322 322 324 325 325 324 324 323 323 323 323 323 322 319 318 320 319 323 323 326 327 326 327 327 327
309 311 313 315 316 316 316 316 317 317 319 319 319 319 320 320 320 321 322 323 325 325 326 325 324 324 322 322 323 323 323 320 319 320 319 322 322 326 326 325 327 326 326 325
309 310 312 316 317 318 317 317 317 319 319 318 318 321 319 319 320 319 321 323 324 324 323 324 324 323 322 322 323 323 321 321 320 319 320 323 325 327 324 324 325 326 324 322
308 310 312 314 318 319 318 319 318 319 318 318 319 319 320 318 319 320 319 323 324 322 322 324 324 323 322 323 324 323 322 322 319 320 323 327 327 327 324 324 324 326 325 323
309 311 311 314 317 318 318 317 316 316 315 318 318 319 319 319 321 320 320 322 322 323 323 324 324 322 323 324 323 323 323 322 320 322 325 328 328 327 324 324 324 325 325 323
310 309 311 313 314 315 314 313 314 315 316 318 318 319 319 319 319 320 320 321 323 323 324 324 323 323 324 324 324 324 324 323 321 322 327 328 329 327 326 324 324 326 325 323
312 312 309 313 313 315 317 315 314 317 319 321 319 321 321 319 319 321 321 321 323 323 324 324 324 324 324 324 324 323 324 321 322 326 328 327 329 327 327 325 324 324 324 324
312 313 313 312 314 315 315 315 314 317 318 319 318 320 320 320 321 321 320 320 322 323 324 324 324 325 324 325 324 323 322 323 323 327 327 327 328 329 326 324 322 323 324 324
312 313 313 312 313 314 313 314 315 313 317 320 319 320 322 322 321 322 322 319 321 323 324 324 325 324 325 325 324 323 321 323 324 326 327 327 327 329 325 323 324 322 322 323
310 312 315 312 312 312 311 312 312 314 312 317 319 320 317 320 320 321 320 321 322 323 324 324 324 325 326 325 323 322 322 324 325 326 327 327 328 329 325 324 324 324 322 321
309 310 312 313 313 313 313 312 313 314 315 315 318 319 318 318 317 319 319 322 322 324 324 324 324 325 326 324 323 321 322 324 324 325 327 327 327 329 326 325 324 324 323 322
310 312 312 313 314 312 313 313 313 311 313 316 318 318 319 320 319 319 320 323 323 324 324 325 325 326 326 324 323 321 322 324 324 325 326 327 328 326 326 325 325 324 325 324
308 309 313 314 313 313 313 313 313 312 311 315 318 319 320 324 320 318 321 323 324 324 325 325 325 326 326 324 323 321 322 324 323 324 327 328 327 327 326 325 325 324 324 324
305 308 311 311 314 315 316 314 314 313 313 314 315 317 317 318 321 319 322 323 324 325 325 325 326 327 326 324 323 322 321 324 323 323 326 328 327 326 326 325 323 323 324 324
308 308 309 311 316 316 316 314 314 313 314 314 316 316 315 317 323 322 323 323 324 325 326 326 326 327 326 324 323 322 321 324 323 322 325 327 328 326 326 325 326 325 323 322
309 307 307 310 311 315 316 315 314 315 313 314 316 317 318 322 323 322 324 324 325 326 326 326 326 326 326 324 324 322 321 324 322 320 324 326 328 326 327 326 327 328 327 324
309 307 307 309 313 316 316 315 315 314 315 315 315 316 317 319 325 325 325 326 326 326 326 326 327 326 325 324 323 322 322 323 322 320 322 325 328 328 326 326 326 325 327 327
309 310 311 312 315 315 318 318 317 319 317 316 321 321 318 319 324 326 326 325 327 328 327 327 326 325 325 324 323 321 322 322 323 320 320 323 328 328 327 327 326 324 324 328
311 311 313 312 317 318 317 314 314 317 317 313 313 314 319 320 323 322 327 327 327 328 327 327 326 325 325 324 323 321 322 322 322 320 319 319 328 326 325 325 327 324 323 327
314 312 313 311 312 318 313 312 313 321 315 311 312 312 311 319 321 322 323 327 328 329 328 327 326 325 325 324 324 321 321 322 321 320 318 318 326 327 325 324 324 324 323 323
314 314 313 310 316 324 312 312 313 312 312 311 312 312 312 312 316 321 322 327 328 328 328 327 326 325 325 325 325 322 321 320 321 322 319 318 320 328 327 326 324 324 324 321
314 311 312 315 317 313 313 311 310 309 309 310 310 312 313 314 319 322 322 323 327 328 329 328 326 325 325 325 325 322 320 321 322 322 319 318 319 321 327 328 327 325 325 324
309 308 312 311 311 311 309 312 310 309 309 310 311 312 314 315 319 324 323 322 325 327 329 328 327 326 325 325 326 325 321 321 321 322 321 318 318 321 325 325 327 326 326 325
307 308 309 311 310 309 310 309 309 309 309 309 313 314 315 317 323 324 323 323 325 326 328 328 328 327 327 326 326 326 325 321 321 322 322 319 318 319 319 321 323 326 325 324
308 307 310 310 308 308 309 309 309 310 310 309 312 314 317 317 325 326 323 323 326 326 328 328 328 328 327 327 326 326 326 324 321 321 322 321 319 319 318 320 321 325 324 323
Wind_Speed
13 8 22 23 17 6 5 12 16 5 3 7 10 8 15 24 13 18 29 34 40 41 37 27 23 26 32 30 29 31 29 23 20 16 12 10 7 10 12 13 15 12 11 12
6 29 22 13 17 17 12 13 16 8 3 6 10 13 16 15 18 20 29 36 37 30 23 20 18 22 30 31 34 32 25 20 17 12 10 8 8 10 13 14 12 10 9 11
25 26 15 17 13 16 17 20 16 10 5 5 7 12 14 12 14 19 25 23 22 23 18 17 19 23 28 32 35 28 21 18 13 10 7 6 7 10 11 10 7 7 9 9
18 21 20 12 20 16 19 16 15 11 3 6 5 6 10 9 16 7 21 23 22 18 19 17 18 20 26 34 29 22 19 16 11 8 5 4 6 9 9 8 5 6 7 4
13 18 21 23 24 20 13 10 9 8 7 2 3 4 6 5 10 14 11 25 24 19 18 15 17 22 30 30 24 20 18 14 8 6 5 3 7 8 8 7 6 5 5 1
11 12 23 10 12 16 7 5 4 3 1 8 13 7 4 6 10 6 5 9 14 10 12 15 18 26 30 26 22 19 16 11 7 6 5 3 7 6 7 7 7 6 5 4
5 14 2 7 6 7 7 8 1 3 0 5 6 7 13 10 9 9 11 15 6 11 17 20 27 34 31 26 22 19 15 9 7 6 4 3 6 5 8 9 8 4 2 6
8 5 17 6 10 9 16 10 6 5 3 5 7 8 7 13 15 21 22 16 11 18 20 24 31 34 29 25 21 17 14 9 7 7 4 1 5 6 7 8 6 1 4 7
6 6 4 14 7 20 8 10 10 2 1 1 4 7 7 6 7 3 0 8 17 20 22 26 32 31 27 23 19 16 12 10 8 6 5 1 3 6 6 8 7 3 6 9
4 3 5 14 6 19 11 11 7 6 6 4 5 5 5 3 7 3 4 8 17 21 23 26 32 30 24 19 17 16 11 9 9 6 5 2 2 6 5 6 6 4 6 10
7 1 2 10 13 13 5 6 3 7 5 5 1 6 7 9 7 8 9 17 24 25 26 29 32 28 23 19 19 16 13 12 10 7 6 2 1 5 4 3 2 3 6 9
3 3 3 13 7 20 17 10 7 8 10 4 4 5 4 9 6 6 9 16 18 22 26 29 31 29 24 21 21 17 14 12 9 8 6 4 2 3 2 3 3 3 7 8
8 4 2 2 3 3 21 20 11 5 4 16 4 5 3 5 4 9 11 18 19 22 25 28 31 30 25 23 21 17 15 13 10 8 7 5 0 1 2 3 6 6 7 9
13 3 5 8 2 5 5 16 18 9 3 4 10 3 5 4 7 6 10 18 21 23 26 30 33 30 26 23 21 17 16 14 12 9 8 5 1 2 2 8 8 8 9 11
6 4 3 14 12 8 0 9 20 17 21 11 4 7 6 8 9 7 17 20 23 24 28 33 35 31 28 25 22 18 17 16 14 11 9 6 5 5 5 12 11 12 12 12
3 4 6 4 6 14 10 11 10 24 20 18 3 11 8 5 5 9 21 25 26 28 31 34 34 32 30 26 24 20 19 18 16 13 10 8 9 8 9 12 13 12 11 11
2 3 6 4 7 4 11 22 12 5 12 15 11 22 4 5 8 12 23 28 31 32 34 36 36 33 31 28 25 23 21 20 18 14 12 13 12 10 10 13 13 12 9 9
4 1 2 4 5 6 5 4 15 14 7 9 11 6 10 11 29 29 30 34 34 33 35 36 35 34 30 27 26 23 21 21 20 17 14 17 15 12 12 12 11 10 9 10
13 3 3 3 2 5 4 8 7 3 2 10 7 8 6 13 7 9 30 36 38 37 36 35 33 32 29 28 27 26 23 23 22 20 17 19 15 15 13 11 9 8 6 9
6 12 5 1 2 5 6 15 12 2 4 12 11 10 11 13 5 7 33 35 36 34 32 33 33 33 30 30 29 29 27 26 24 23 20 18 18 17 13 11 9 8 7 10
2 2 5 2 2 2 14 17 11 8 4 15 17 15 14 5 9 18 16 32 39 36 34 31 34 34 32 31 31 32 30 28 24 22 21 19 21 18 14 13 11 10 8 10
2 1 2 2 2 1 18 7 7 6 15 18 20 19 21 26 30 32 19 31 36 35 33 32 35 35 34 34 33 34 33 27 24 24 23 21 21 20 18 14 14 12 8 9
2 2 2 4 2 9 13 2 6 13 18 19 22 27 27 27 26 27 29 23 36 35 37 35 37 38 37 36 36 33 31 29 27 25 24 23 20 21 20 18 16 15 12 10
1 1 1 4 6 15 21 8 20 23 26 29 27 27 25 26 23 23 27 24 32 35 39 39 38 39 39 39 38 32 29 29 29 27 28 24 23 23 22 20 18 16 15 13
0 3 4 2 6 18 11 20 27 33 34 34 34 31 29 25 21 15 22 28 32 36 42 43 38 38 37 39 38 37 32 31 31 29 30 27 26 23 22 21 21 20 16 13
4 5 1 1 4 11 17 27 34 29 31 34 34 38 32 29 21 13 20 30 33 38 44 43 39 36 35 35 37 38 35 33 31 32 33 30 29 27 25 23 22 22 20 16
Wind_Direction
180 198 218 207 208 206 206 229 242 248 202 243 244 256 265 281 267 269 278 280 290 293 294 292 285 260 242 232 218 205 198 204 211 215 221 232 269 299 307 309 304 284 270 275
168 227 219 196 204 208 211 237 248 264 198 228 271 273 273 278 273 264 273 279 279 285 284 283 271 241 234 220 200 194 196 208 211 210 226 250 281 308 312 314 304 282 279 285
200 225 199 195 194 205 214 221 236 238 307 262 311 291 279 280 278 270 272 277 290 275 272 269 238 223 214 198 189 186 196 204 201 208 229 251 294 318 319 320 307 293 295 290
228 223 194 191 207 194 222 215 236 253 255 255 132 284 290 300 296 278 285 296 287 285 272 242 228 210 195 184 178 183 194 194 196 211 220 259 314 337 334 333 323 316 316 302
213 178 199 204 204 193 224 178 211 225 231 208 240 278 266 268 279 281 271 286 279 273 261 240 210 191 176 174 175 183 187 185 194 209 221 277 338 334 338 332 325 305 311 215
213 200 196 176 189 197 169 143 80 31 140 258 255 204 245 231 233 261 266 275 297 248 204 194 182 169 166 171 177 181 183 178 193 206 211 303 342 340 338 339 327 297 289 205
168 232 197 159 174 164 131 98 258 335 242 225 192 187 244 252 235 233 256 275 293 195 171 171 164 166 169 175 180 181 179 182 191 193 202 308 344 344 337 339 331 300 205 184
173 202 199 177 184 171 184 161 155 199 214 249 161 204 245 224 232 246 255 260 198 189 169 166 168 169 172 180 179 179 178 183 185 176 196 306 352 354 340 343 351 1 160 171
162 234 166 185 164 180 176 201 175 63 173 312 225 276 305 227 261 280 330 187 183 179 172 168 170 172 176 179 179 178 176 178 175 174 202 201 18 359 356 11 21 87 143 162
244 167 190 203 147 187 174 145 178 194 196 231 274 272 225 220 227 291 217 194 185 175 172 170 173 175 178 178 176 174 176 176 171 182 176 123 341 357 16 37 50 81 129 156
0 107 255 137 198 172 152 167 145 164 159 163 298 262 221 224 216 226 215 184 189 175 173 171 173 177 176 174 178 178 179 176 175 179 174 198 311 349 7 36 79 88 145 157
306 321 217 211 161 195 198 174 158 189 196 206 157 267 221 229 242 221 209 176 184 183 172 174 174 177 176 177 181 184 182 180 179 180 188 194 254 339 4 32 118 90 146 153
334 304 148 47 320 139 203 203 199 117 107 210 177 252 318 323 271 223 200 174 176 177 175 176 177 180 179 180 183 186 185 179 187 187 191 192 202 21 31 85 122 120 125 144
336 283 272 218 206 134 160 207 210 193 158 185 213 187 261 280 264 242 187 182 172 178 179 178 181 183 183 184 186 186 184 179 184 182 184 187 86 90 61 123 122 126 123 129
3 273 290 309 291 286 153 185 201 204 215 208 187 234 225 245 242 242 187 174 170 179 184 184 185 185 187 187 189 190 186 184 186 183 185 171 140 100 104 126 121 119 121 124
290 283 345 300 270 272 264 263 229 204 208 227 182 252 212 250 161 177 172 178 181 188 191 190 188 188 189 189 191 192 189 187 190 185 184 168 148 108 115 129 122 119 124 127
261 303 4 305 340 267 263 238 233 218 221 202 197 234 146 200 219 198 178 193 194 197 194 193 192 191 191 189 191 193 190 188 192 186 183 169 150 125 118 132 123 116 127 139
218 114 228 267 308 179 235 173 211 222 222 223 245 233 191 207 220 206 196 202 205 204 199 197 194 193 193 189 191 190 191 191 195 191 184 176 165 152 129 128 124 116 123 140
219 181 233 202 235 272 75 29 3 16 134 7 336 343 350 318 163 236 205 210 216 208 204 198 194 191 190 190 188 191 193 193 198 195 186 183 181 173 165 152 132 118 117 136
307 210 206 175 191 188 25 322 312 257 190 1 350 339 339 329 167 232 211 213 218 213 208 197 195 192 190 190 190 192 195 195 199 199 190 185 185 180 172 163 157 137 123 133
36 64 198 202 259 320 340 319 308 158 285 320 328 317 312 280 235 284 289 208 220 214 209 195 196 193 190 191 192 196 197 199 190 195 194 192 192 188 179 172 168 159 133 142
104 302 206 187 260 154 359 5 62 283 304 317 319 317 304 299 298 269 276 229 213 208 204 196 195 194 193 194 195 199 202 194 191 196 198 197 196 194 192 186 181 173 167 157
97 52 289 349 28 336 330 290 334 337 314 318 321 319 321 314 300 277 254 248 220 209 203 200 195 194 197 197 199 201 203 197 194 198 199 201 199 201 202 202 199 193 188 181
112 278 253 313 11 325 308 292 337 341 333 330 330 328 336 319 311 280 244 242 223 208 206 201 195 196 202 200 202 207 200 195 197 199 201 199 204 205 205 207 206 203 202 198
92 304 270 255 312 322 27 340 331 332 342 342 354 348 343 339 325 290 236 231 225 210 203 202 196 196 206 203 203 206 206 199 198 200 204 202 204 206 205 208 209 210 214 218
191 216 254 357 335 291 290 314 328 329 329 345 346 353 358 347 336 294 232 222 221 212 201 200 199 199 206 206 204 208 208 204 201 202 206 205 206 209 209 209 213 219 219 217